Simultaneous Nadir Overpasses (SNOs) Predictions

Prediction of SNOs between AQUA and METOP-A Satellite Orbit:

Table of predicted SNOs for the next 14.0 days since TLE Epoch: 7/7/2017
Index Date (AQUA) Time (AQUA) Lat,Lon (AQUA) SZA (AQUA ) Date (METOP-A) Time (METOP-A) Lat,Lon (METOP-A) SZA (METOP-A ) Distance(km) Time Diff (sec)
1 07/10/2017 00:03:27 -73.52, -6.02 128.68 07/10/2017 00:02:17 -73.48, -7.65 128.63 51.63 70
2 07/10/2017 00:53:02 73.93, 160.73 51.77 07/10/2017 00:52:48 73.92, 160.70 51.76 1.03 14
3 07/10/2017 01:42:29 -73.98, -31.76 128.17 07/10/2017 01:43:28 -74.01, -31.76 128.16 2.61 59
4 07/12/2017 19:37:45 -73.72, 59.97 128.08 07/12/2017 19:36:33 -73.68, 59.20 128.07 24.52 72
5 07/12/2017 20:27:16 73.93,-132.84 52.16 07/12/2017 20:27:08 73.91,-132.91 52.14 2.95 8
6 07/12/2017 21:16:43 -73.98, 34.69 127.79 07/12/2017 21:17:48 -74.00, 34.64 127.77 3.12 65
7 07/15/2017 15:12:03 -73.88, 126.06 127.47 07/15/2017 15:10:50 -73.87, 126.07 127.47 0.93 73
8 07/15/2017 16:01:31 73.94, -66.43 52.60 07/15/2017 16:01:28 73.95, -66.41 52.61 1.34 3
9 07/15/2017 16:50:58 -73.98, 101.12 127.35 07/15/2017 16:52:09 -74.00, 101.03 127.34 3.33 71
10 07/18/2017 10:46:18 -73.89,-167.51 126.99 07/18/2017 10:45:11 -73.87,-167.54 126.99 2.61 67
11 07/18/2017 11:35:46 73.96, -0.02 53.10 07/18/2017 11:35:49 73.94, -0.03 53.08 1.73 3
12 07/18/2017 12:25:15 -74.09, 167.31 126.75 07/18/2017 12:26:28 -74.09, 167.67 126.78 10.96 73
13 07/21/2017 06:20:32 -73.90,-101.11 126.44 07/21/2017 06:19:30 -73.91,-101.03 126.43 2.29 62
14 07/21/2017 07:10:00 73.97, 66.37 53.64 07/21/2017 07:10:08 73.98, 66.46 53.64 2.77 8




NCC Satellite Simultaneous Nadir Overpasses (SNOs) Prediction Service
